428  
NZUS99 KDVN 241310  
HRRRRR  
HOURLY WEATHER ROUNDUP  
NATIONAL WEATHER SERVICE QUAD CITIES IA IL  
800 AM CDT THU MAY 24 2018  
 
NOTE: "FAIR" INDICATES FEW OR NO CLOUDS BELOW 12,000 FEET WITH  
NO SIGNIFICANT WEATHER AND/OR OBSTRUCTIONS TO VISIBILITY.  
------------------------------------------------------------------  
 
CITY SKY/WX TMP DP RH WIND PRES REMARKS  
BURLINGTON CLOUDY 71 61 70 SE6 30.16R  
CEDAR RAPIDS FAIR 70 61 73 SE7 30.14S  
DAVENPORT FAIR 69 56 62 S8 30.18S  
DUBUQUE FAIR 69 57 65 S9 30.17S  
IOWA CITY FAIR 69 60 73 CALM 30.16S  
MOLINE FAIR 70 59 68 CALM 30.15S  
------------------------------------------------------------------  
THE STATIONS BELOW ARE NOT NWS STATIONS AND ARE NOT SUBJECT TO NWS  
QUALITY CONTROL. SOME STATIONS DO NOT REPORT WEATHER SUCH AS FOG.  
* - STATIONS THAT REPORT TMP AND DP IN WHOLE DEGREES CELSIUS, WHICH  
ARE THEN CONVERTED TO FAHRENHEIT.  
------------------------------------------------------------------  
 
CITY SKY/WX TMP DP RH WIND PRES REMARKS  
CLINTON N/A 69 58 67 SE8 30.17F  
FAIRFIELD * CLOUDY 73 61 64 S7 30.14R  
FORT MADISON * CLOUDY 72 63 73 S3 30.16S  
FREEPORT FAIR 66 57 71 SE3 30.21R  
INDEPENDENCE * FAIR 70 60 71 SE10 30.14S  
KEOKUK * CLOUDY 73 64 73 SE5 30.14F  
MACOMB SUNNY 72 62 69 S7 30.19S  
MONTICELLO * FAIR 70 59 68 SE7 30.15S  
MT PLEASANT MOSUNNY 72 59 64 S6 30.15S  
MUSCATINE * FAIR 70 59 68 SE3 30.15S  
SAVANNA FAIR 69 56 64 S6 30.17S  
STERLING/R.F. N/A 68 59 73 MISG N/A  
VINTON * FAIR 72 58 61 S8 30.14S  
WASHINGTON * MOSUNNY 72 63 73 S8 30.16S  
------------------------------------------------------------------  
 
 
CLICK HERE TO GO TO PREVIOUS BULLETINS.

The Nexlab IL Page
The Nexlab IA Page
The Nexlab MO Page Main Text Page